Regional Weather Roundup
Issued by NWS

Home | Current Version | Previous Version | Graphics & Text | Print | Product List | Glossary On
Versions: 1 2 3 4 5 6 7 8 9 10 11 12 13 14 15 16 17 18 19 20 21 22 23 24 25 26 27 28 29 30 31 32 33 34 35 36 37 38 39 40 41 42 43 44 45 46 47 48 49 50
000
ASUS43 KDMX 291806
RWRIA

WEATHER ROUNDUP FOR IOWA
NATIONAL WEATHER SERVICE DES MOINES IA
100 PM CDT WED MAR 29 2017

NOTE: "FAIR" INDICATES FEW OR NO CLOUDS BELOW 12,000 FEET WITH NO
SIGNIFICANT WEATHER AND/OR OBSTRUCTIONS TO VISIBILITY.

* - THESE STATIONS ARE NOT NWS STATIONS...THUS NOT UNDER NWS
QUALITY CONTROL.  THEY ALSO DO NOT REPORT WEATHER SUCH
AS PRECIPITATION OR FOG.

IAZ001>003-012>014-020>022-031>034-043>046-291900-
   NORTHWEST IOWA

CITY           SKY/WX    TMP DP  RH WIND       PRES   REMARKS
CARROLL *      LGT RAIN  41  41 100 NE23G30   29.99F
CHEROKEE *     LGT RAIN  42  41  95 E15G23    30.06F
DENISON *      LGT RAIN  41  39  93 NE23G33   29.99F
LE MARS *      CLOUDY    46  39  76 NE18G30   30.05F
ORANGE CITY *  DRIZZLE   45  39  81 E17G31    30.06F
SHELDON *      CLOUDY    46  36  66 E24G31    30.06F
SIOUX CITY     LGT RAIN  47  43  86 NE17G25   30.01F
6HR MIN TEMP:  45; 6HR MAX TEMP:  47; 6HR PCP:  0.11;

SPENCER        LGT RAIN  45  40  82 E24G35    30.10F
6HR MIN TEMP:  43; 6HR MAX TEMP:  46; 6HR PCP:  0.12;

STORM LAKE *   LGT RAIN  41  39  93 E22G32    30.05F
$$

IAZ055>058-069>071-079>083-090>094-291900-
   SOUTHWEST IOWA

CITY           SKY/WX    TMP DP  RH WIND       PRES   REMARKS
ATLANTIC *     RAIN      41  41 100 NE17G28   29.91F
AUDUBON *      RAIN      41  37  87 NE22G29   29.97F
CLARINDA *     CLOUDY    43  43 100 NE15G23   29.88F FOG
COUNCIL BLFS * CLOUDY    41  41 100 NE25G33   29.89F FOG
CRESTON *      LGT RAIN  41  41 100 NE23G31   29.89F
HARLAN  *      RAIN      41  41 100 NE21G29   29.96F
LAMONI         RAIN      44  43  96 E13G18    29.86F FOG
6HR MIN TEMP:  43; 6HR MAX TEMP:  45; 6HR PCP:  0.20;

RED OAK *      MIX PCPN  43  41  93 NE20G30   29.87F
SHENANDOAH *   MIX PCPN  43  43 100 NE20G29   29.86F
$$

IAZ047>049-059>061-072>074-084-291900-
   CENTRAL IOWA

CITY           SKY/WX    TMP DP  RH WIND       PRES   REMARKS
AMES           LGT RAIN  42  42 100 NE15      30.03F FOG
6HR MIN TEMP:  40; 6HR MAX TEMP:  43; 6HR PCP:  0.43;

ANKENY *       LGT RAIN  43  41  93 NE13G21   30.00F
BOONE *        LGT RAIN  41  41 100 NE22      30.01F
CHARITON *     LGT RAIN  45  43  93 E17G23    29.91F
DES MOINES     LGT RAIN  44  42  93 NE16G28   29.97F FOG
6HR MIN TEMP:  42; 6HR MAX TEMP:  45; 6HR PCP:  0.32;

GRINNELL*      CLOUDY    42  41  95 E18G25    30.03F FOG
MARSHALLTOWN   LGT RAIN  43  42  97 E20       30.03F FOG
6HR MIN TEMP:  40; 6HR MAX TEMP:  43; 6HR PCP:  0.07;

NEWTON *       CLOUDY    43  41  93 E17       30.00F FOG
PELLA *        DRIZZLE   44  42  94 E14G21    29.99F
PERRY *        LGT RAIN  42  41  95 NE18G25   29.99F
$$

IAZ004>006-015-016-023>025-035-036-291900-
   NORTH CENTRAL IOWA

CITY           SKY/WX    TMP DP  RH WIND       PRES   REMARKS
ALGONA *       DRIZZLE   45  39  81 E18G29    30.12F
CLARION *      CLOUDY    43  43 100 E22G28    30.09F FOG
ESTHERVILLE    CLOUDY    45  41  86 E21G32    30.12F
6HR MIN TEMP:  38; 6HR MAX TEMP:  45; 6HR PCP:  0.02;

FORT DODGE *   CLOUDY    41  37  87 NE18      30.07F
MASON CITY     LGT RAIN  44  37  76 NE16      30.15F
6HR MIN TEMP:  41; 6HR MAX TEMP:  45; 6HR PCP:  0.02;

FOREST CITY *  DRIZZLE   45  37  76 E12G18    30.15F
WEBSTER CITY * LGT RAIN  41  41 100 NE20G26   30.04F
IOWA FALLS *   LGT RAIN  42  41  94 NE14G20   30.08F
$$

IAZ007>011-017>019-026>030-037>042-050>054-066-291900-
   NORTHEAST IOWA

CITY           SKY/WX    TMP DP  RH WIND       PRES   REMARKS
CEDAR RAPIDS   LGT RAIN  43  42  97 E18G26    30.06F
6HR MIN TEMP:  39; 6HR MAX TEMP:  43; 6HR PCP:  0.03;

CHARLES CITY * CLOUDY    45  39  81 E17       30.17F
CLINTON *      CLOUDY    46  42  86 E20       30.12F
DECORAH *      CLOUDY    45  36  70 NE12      30.19S
DUBUQUE        CLOUDY    44  34  67 E16       30.14F
6HR MIN TEMP:  37; 6HR MAX TEMP:  44; 6HR PCP: TRACE;

MONTICELLO *   CLOUDY    46  37  71 E16G23    30.12F
OELWEIN *        N/A     46  34  61 E18       30.14F
WATERLOO       LGT RAIN  44  38  79 NE17      30.12F
6HR MIN TEMP:  39; 6HR MAX TEMP:  44; 6HR PCP:  0.01;

$$

IAZ064-065-067-068-078-291900-
   EAST CENTRAL IOWA

CITY           SKY/WX    TMP DP  RH WIND       PRES   REMARKS
DAVENPORT      CLOUDY    46  42  86 E24       30.10F
6HR MIN TEMP:  40; 6HR MAX TEMP:  46; 6HR PCP:  0.04;

IOWA CITY      CLOUDY    46  41  82 E13G25    30.07F
6HR MIN TEMP:  42; 6HR MAX TEMP:  46; 6HR PCP:  0.06;

MUSCATINE *    CLOUDY    46  43  87 E17G23    30.06F
QUAD CITIES    CLOUDY    46  42  86 E18       30.09F
6HR MIN TEMP:  42; 6HR MAX TEMP:  46; 6HR PCP:  0.10;

$$

IAZ062-063-075>077-085>089-095>099-291900-
   SOUTHEAST IOWA

CITY           SKY/WX    TMP DP  RH WIND       PRES   REMARKS
BURLINGTON     CLOUDY    48  47  96 E17G26    30.02F
6HR MIN TEMP:  42; 6HR MAX TEMP:  48; 6HR PCP:  0.43;

FAIRFIELD *    CLOUDY    46  45  93 E17G32    29.99F
FORT MADISON * CLOUDY    48  48 100 E21G28    30.01F
KEOKUK *       CLOUDY    48  46  93 E18G26    29.98F
OSKALOOSA *    CLOUDY    45  43  95 E21G29    29.98F
CENTERVILLE *  LGT RAIN  46  45  93 E15G26    29.93F
OTTUMWA        LGT RAIN  47  46  97 E17G29    29.96F
6HR MIN TEMP:  41; 6HR MAX TEMP:  47; 6HR PCP:  0.15;

WASHINGTON *   CLOUDY    46  46 100 E21G29    30.03F FOG
$$

ABBREVIATIONS USED IN REMARKS
   TC - TEMPERATURES IN CELSIUS
  WCI - WIND CHILL INDEX
   HX - HEAT INDEX
  VSB - VISIBILITY
$$





USA.gov is the U.S. government's official web portal to all federal, state and local government web resources and services.